DLH1996 SBKP-SGAS

Flight info

Callsign DLH1996
Flight time 1h 35m
Altitude 40000
Route ASETA UL301 DEVOS DEVOS
Aircraft A359/H-SDE2E3GHIJ3J4J5LM1ORWXY/LB1D1

Departure

Time 2026-04-27 23:54
Airport Viracopos International Airport (SBKP)

Arrival

Time 2026-04-28 01:29
Airport Silvio Pettirossi International Airport (SGAS)
Time Latitude Longitude Altitude Speed Heading
2026-04-27 23:38 -23.00685 -47.15234 2163 ft 4 kts 38°
2026-04-27 23:39 -23.00700 -47.15246 2155 ft 4 kts 34°
2026-04-27 23:40 -23.00723 -47.15261 2155 ft 4 kts 24°
2026-04-27 23:40 -23.00748 -47.15270 2155 ft 4 kts
2026-04-27 23:40 -23.00770 -47.15264 2155 ft 2 kts 309°
2026-04-27 23:40 -23.00771 -47.15263 2155 ft 5 kts 308°
2026-04-27 23:44 -23.00771 -47.15264 2163 ft 2 kts 308°
2026-04-27 23:44 -23.00712 -47.15333 2156 ft 16 kts 313°
2026-04-27 23:45 -23.00701 -47.15347 2155 ft 0 kts 311°
2026-04-27 23:45 -23.00700 -47.15348 2155 ft 3 kts 311°
2026-04-27 23:46 -23.00662 -47.15397 2156 ft 0 kts 315°
2026-04-27 23:46 -23.00659 -47.15399 2156 ft 0 kts 315°
2026-04-27 23:47 -23.00659 -47.15400 2156 ft 0 kts 315°
2026-04-27 23:49 -23.00636 -47.15424 2155 ft 6 kts 314°
2026-04-27 23:49 -23.00635 -47.15425 2156 ft 0 kts 314°
2026-04-27 23:50 -23.00635 -47.15426 2156 ft 0 kts 314°
2026-04-27 23:50 -23.00631 -47.15430 2157 ft 0 kts 314°
2026-04-27 23:50 -23.00629 -47.15433 2157 ft 5 kts 315°
2026-04-27 23:50 -23.00591 -47.15469 2157 ft 0 kts 325°
2026-04-27 23:51 -23.00590 -47.15472 2155 ft 2 kts 311°
2026-04-27 23:52 -23.00564 -47.15589 2111 ft 0 kts 259°
2026-04-27 23:53 -22.99858 -47.14683 2163 ft 0 kts 128°
2026-04-27 23:53 -22.99871 -47.14664 2156 ft 12 kts 128°
2026-04-27 23:53 -23.00066 -47.14394 2156 ft 84 kts 127°
2026-04-27 23:53 -23.00577 -47.13684 2152 ft 152 kts 127°
2026-04-27 23:54 -23.01294 -47.12652 2587 ft 179 kts 129°
2026-04-27 23:54 -23.02073 -47.11584 3415 ft 188 kts 131°
2026-04-27 23:54 -23.03065 -47.10526 3961 ft 208 kts 148°
2026-04-27 23:54 -23.04504 -47.10227 4267 ft 222 kts 192°
2026-04-27 23:55 -23.05878 -47.11008 4728 ft 228 kts 220°
2026-04-27 23:55 -23.07263 -47.12026 4981 ft 252 kts 211°
2026-04-27 23:55 -23.08889 -47.12902 5439 ft 265 kts 212°
2026-04-27 23:55 -23.10304 -47.14171 6032 ft 266 kts 235°
2026-04-27 23:56 -23.10984 -47.15981 6670 ft 263 kts 265°
2026-04-27 23:56 -23.11076 -47.17964 7538 ft 264 kts 271°
2026-04-27 23:56 -23.11083 -47.19994 7901 ft 272 kts 271°
2026-04-27 23:56 -23.11100 -47.22056 8570 ft 274 kts 270°
2026-04-27 23:57 -23.11134 -47.24132 9247 ft 276 kts 270°
2026-04-27 23:57 -23.11176 -47.26225 9912 ft 279 kts 270°
2026-04-27 23:57 -23.11224 -47.28354 10405 ft 287 kts 270°
2026-04-27 23:57 -23.11276 -47.30583 10665 ft 303 kts 270°
2026-04-27 23:58 -23.11333 -47.32928 10914 ft 318 kts 270°
2026-04-27 23:58 -23.11392 -47.35366 11259 ft 327 kts 270°
2026-04-27 23:58 -23.11454 -47.37855 11753 ft 331 kts 270°
2026-04-27 23:58 -23.11516 -47.40364 12285 ft 334 kts 270°
2026-04-27 23:59 -23.11578 -47.42895 12820 ft 336 kts 270°
2026-04-27 23:59 -23.11640 -47.45444 13337 ft 339 kts 270°
2026-04-27 23:59 -23.11702 -47.48010 13853 ft 341 kts 270°
2026-04-27 23:59 -23.11764 -47.50597 14316 ft 343 kts 270°
2026-04-28 00:00 -23.11826 -47.53196 14792 ft 345 kts 270°
2026-04-28 00:00 -23.11887 -47.55779 15743 ft 348 kts 268°
2026-04-28 00:00 -23.11951 -47.58454 15290 ft 360 kts 269°
2026-04-28 00:00 -23.12015 -47.61173 15846 ft 356 kts 270°
2026-04-28 00:01 -23.12078 -47.63827 16680 ft 348 kts 270°
2026-04-28 00:01 -23.12139 -47.66460 17166 ft 350 kts 270°
2026-04-28 00:01 -23.12200 -47.69114 17585 ft 353 kts 270°
2026-04-28 00:01 -23.12261 -47.71791 18033 ft 356 kts 270°
2026-04-28 00:02 -23.12322 -47.74489 18438 ft 358 kts 270°
2026-04-28 00:02 -23.12383 -47.77203 18854 ft 359 kts 270°
2026-04-28 00:02 -23.12443 -47.79919 19240 ft 361 kts 270°
2026-04-28 00:02 -23.12580 -47.82649 19637 ft 363 kts 265°
2026-04-28 00:03 -23.13144 -47.85330 20057 ft 367 kts 253°
2026-04-28 00:03 -23.14283 -47.87840 20440 ft 374 kts 242°
2026-04-28 00:03 -23.15766 -47.90188 20799 ft 378 kts 238°
2026-04-28 00:03 -23.17315 -47.92511 21159 ft 381 kts 238°
2026-04-28 00:04 -23.18873 -47.94848 21517 ft 382 kts 239°
2026-04-28 00:04 -23.21977 -47.99539 22236 ft 386 kts 239°
2026-04-28 00:04 -23.23545 -48.01920 22612 ft 388 kts 239°
2026-04-28 00:05 -23.25115 -48.04306 23008 ft 389 kts 240°
2026-04-28 00:05 -23.26679 -48.06717 23373 ft 390 kts 242°
2026-04-28 00:05 -23.28003 -48.09267 23701 ft 386 kts 250°
2026-04-28 00:05 -23.28637 -48.11065 23887 ft 383 kts 257°
2026-04-28 00:06 -23.29436 -48.14832 24269 ft 383 kts 263°
2026-04-28 00:06 -23.29887 -48.17691 24572 ft 384 kts 264°
2026-04-28 00:06 -23.30284 -48.20536 24886 ft 385 kts 265°
2026-04-28 00:06 -23.30672 -48.23419 25214 ft 386 kts 265°
2026-04-28 00:07 -23.31065 -48.26316 25502 ft 389 kts 265°
2026-04-28 00:07 -23.31470 -48.29237 25800 ft 391 kts 265°
2026-04-28 00:07 -23.31887 -48.32170 26117 ft 393 kts 264°
2026-04-28 00:07 -23.32311 -48.35110 26446 ft 394 kts 264°
2026-04-28 00:08 -23.32740 -48.38060 26784 ft 396 kts 264°
2026-04-28 00:08 -23.33240 -48.41015 27103 ft 400 kts 260°
2026-04-28 00:08 -23.33959 -48.43952 27423 ft 403 kts 258°
2026-04-28 00:08 -23.34738 -48.46896 27713 ft 407 kts 257°
2026-04-28 00:09 -23.35552 -48.49852 28047 ft 409 kts 257°
2026-04-28 00:09 -23.36385 -48.52821 28401 ft 411 kts 256°
2026-04-28 00:09 -23.37226 -48.55805 28728 ft 414 kts 256°
2026-04-28 00:09 -23.38070 -48.58808 29097 ft 416 kts 256°
2026-04-28 00:10 -23.38914 -48.61824 29438 ft 418 kts 256°
2026-04-28 00:10 -23.39762 -48.64866 29792 ft 421 kts 256°
2026-04-28 00:10 -23.40612 -48.67925 30128 ft 423 kts 256°
2026-04-28 00:10 -23.41465 -48.71003 30431 ft 426 kts 256°
2026-04-28 00:11 -23.42323 -48.74104 30752 ft 428 kts 256°
2026-04-28 00:11 -23.42894 -48.76167 30967 ft 430 kts 256°
2026-04-28 00:11 -23.44041 -48.80318 31401 ft 433 kts 256°
2026-04-28 00:11 -23.44910 -48.83467 31736 ft 436 kts 256°
2026-04-28 00:12 -23.45785 -48.86641 32073 ft 438 kts 256°
2026-04-28 00:12 -23.46663 -48.89823 32397 ft 441 kts 256°
2026-04-28 00:12 -23.47549 -48.93041 32708 ft 443 kts 256°
2026-04-28 00:12 -23.48435 -48.96259 33029 ft 446 kts 257°
2026-04-28 00:13 -23.49327 -48.99505 33345 ft 448 kts 257°
2026-04-28 00:13 -23.50224 -49.02768 33645 ft 450 kts 257°
2026-04-28 00:13 -23.51124 -49.06046 33959 ft 453 kts 257°
2026-04-28 00:13 -23.52027 -49.09342 34234 ft 455 kts 257°
2026-04-28 00:14 -23.52629 -49.11538 34403 ft 457 kts 257°
2026-04-28 00:14 -23.53539 -49.14860 34653 ft 459 kts 257°
2026-04-28 00:14 -23.54452 -49.18197 34980 ft 460 kts 257°
2026-04-28 00:14 -23.55364 -49.21532 35397 ft 458 kts 257°
2026-04-28 00:15 -23.56273 -49.24853 35803 ft 457 kts 257°
2026-04-28 00:15 -23.57178 -49.28168 36199 ft 456 kts 257°
2026-04-28 00:15 -23.58372 -49.32546 36726 ft 455 kts 257°
2026-04-28 00:15 -23.58979 -49.34777 36971 ft 455 kts 257°
2026-04-28 00:16 -23.59879 -49.38088 37358 ft 455 kts 257°
2026-04-28 00:16 -23.60777 -49.41390 37779 ft 453 kts 257°
2026-04-28 00:16 -23.61671 -49.44682 38214 ft 452 kts 257°
2026-04-28 00:16 -23.62563 -49.47968 38630 ft 451 kts 257°
2026-04-28 00:17 -23.63441 -49.51206 38957 ft 450 kts 257°
2026-04-28 00:17 -23.64323 -49.54477 39319 ft 449 kts 258°
2026-04-28 00:17 -23.65202 -49.57744 39612 ft 449 kts 258°
2026-04-28 00:17 -23.66081 -49.61013 39921 ft 448 kts 258°
2026-04-28 00:18 -23.66960 -49.64284 40012 ft 451 kts 258°
2026-04-28 00:18 -23.68731 -49.70888 40014 ft 454 kts 258°
2026-04-28 00:19 -23.70504 -49.77501 40020 ft 454 kts 258°
2026-04-28 00:19 -23.72276 -49.84116 40019 ft 453 kts 258°
2026-04-28 00:20 -23.74038 -49.90714 40019 ft 453 kts 258°
2026-04-28 00:20 -23.75789 -49.97286 40027 ft 453 kts 258°
2026-04-28 00:21 -23.77544 -50.03880 40021 ft 452 kts 258°
2026-04-28 00:21 -23.79295 -50.10472 40020 ft 451 kts 258°
2026-04-28 00:22 -23.81046 -50.17067 40026 ft 451 kts 258°
2026-04-28 00:22 -23.82784 -50.23651 40024 ft 450 kts 259°
2026-04-28 00:23 -23.84514 -50.30215 40023 ft 449 kts 259°
2026-04-28 00:23 -23.86226 -50.36721 40027 ft 448 kts 259°
2026-04-28 00:24 -23.87945 -50.43264 40036 ft 448 kts 259°
2026-04-28 00:24 -23.89658 -50.49796 40030 ft 447 kts 259°
2026-04-28 00:25 -23.91366 -50.56321 40031 ft 446 kts 259°
2026-04-28 00:25 -23.93073 -50.62847 40034 ft 446 kts 259°
2026-04-28 00:26 -23.94770 -50.69373 40039 ft 446 kts 259°
2026-04-28 00:26 -23.96458 -50.75895 40026 ft 445 kts 259°
2026-04-28 00:27 -23.98142 -50.82413 40036 ft 446 kts 259°
2026-04-28 00:27 -23.99827 -50.88936 40032 ft 446 kts 259°
2026-04-28 00:28 -24.01507 -50.95448 40031 ft 444 kts 259°
2026-04-28 00:28 -24.03179 -51.01941 40030 ft 443 kts 259°
2026-04-28 00:29 -24.04848 -51.08437 40024 ft 443 kts 260°
2026-04-28 00:29 -24.06499 -51.14878 40026 ft 443 kts 260°
2026-04-28 00:30 -24.08161 -51.21376 40025 ft 443 kts 260°
2026-04-28 00:30 -24.09821 -51.27879 40023 ft 444 kts 259°
2026-04-28 00:31 -24.11487 -51.34409 40033 ft 446 kts 259°
2026-04-28 00:31 -24.13145 -51.40953 40024 ft 445 kts 259°
2026-04-28 00:32 -24.14796 -51.47480 40018 ft 444 kts 259°
2026-04-28 00:32 -24.16437 -51.53975 40021 ft 444 kts 259°
2026-04-28 00:33 -24.18081 -51.60495 40015 ft 443 kts 260°
2026-04-28 00:33 -24.19719 -51.67002 40014 ft 442 kts 260°
2026-04-28 00:34 -24.21351 -51.73496 40014 ft 442 kts 260°
2026-04-28 00:34 -24.22983 -51.79999 40013 ft 442 kts 260°
2026-04-28 00:35 -24.24611 -51.86503 40017 ft 442 kts 260°
2026-04-28 00:35 -24.26220 -51.92944 40015 ft 442 kts 260°
2026-04-28 00:36 -24.27843 -51.99457 40015 ft 442 kts 260°
2026-04-28 00:36 -24.29479 -52.06032 40028 ft 452 kts 261°
2026-04-28 00:37 -24.31137 -52.12748 40020 ft 459 kts 261°
2026-04-28 00:37 -24.32808 -52.19494 40023 ft 451 kts 261°
2026-04-28 00:38 -24.34441 -52.26071 40026 ft 444 kts 261°
2026-04-28 00:38 -24.36046 -52.32588 40036 ft 441 kts 261°
2026-04-28 00:39 -24.37637 -52.39076 40037 ft 440 kts 261°
2026-04-28 00:39 -24.39225 -52.45560 40035 ft 440 kts 261°
2026-04-28 00:40 -24.40810 -52.52043 40033 ft 440 kts 261°
2026-04-28 00:40 -24.42390 -52.58532 40034 ft 439 kts 262°
2026-04-28 00:41 -24.43953 -52.64963 40032 ft 439 kts 262°
2026-04-28 00:41 -24.45523 -52.71440 40032 ft 439 kts 262°
2026-04-28 00:42 -24.47041 -52.77925 40036 ft 438 kts 263°
2026-04-28 00:42 -24.48464 -52.84417 40033 ft 436 kts 263°
2026-04-28 00:43 -24.49880 -52.90895 40027 ft 436 kts 263°
2026-04-28 00:43 -24.51306 -52.97365 40028 ft 436 kts 263°
2026-04-28 00:44 -24.52729 -53.03793 40035 ft 435 kts 263°
2026-04-28 00:44 -24.54166 -53.10283 40035 ft 434 kts 263°
2026-04-28 00:45 -24.55585 -53.16718 40038 ft 433 kts 263°
2026-04-28 00:45 -24.57000 -53.23155 40034 ft 433 kts 263°
2026-04-28 00:46 -24.58411 -53.29585 40035 ft 432 kts 263°
2026-04-28 00:46 -24.59805 -53.35946 40037 ft 431 kts 263°
2026-04-28 00:47 -24.61202 -53.42340 40037 ft 431 kts 263°
2026-04-28 00:47 -24.62600 -53.48755 40041 ft 431 kts 263°
2026-04-28 00:48 -24.63993 -53.55158 40044 ft 431 kts 263°
2026-04-28 00:48 -24.65384 -53.61564 40044 ft 431 kts 263°
2026-04-28 00:49 -24.66773 -53.67972 40043 ft 431 kts 263°
2026-04-28 00:49 -24.68158 -53.74379 40050 ft 431 kts 263°
2026-04-28 00:50 -24.69539 -53.80778 40040 ft 430 kts 263°
2026-04-28 00:50 -24.70917 -53.87176 40045 ft 430 kts 263°
2026-04-28 00:51 -24.72291 -53.93576 40046 ft 430 kts 263°
2026-04-28 00:51 -24.73662 -53.99976 40056 ft 430 kts 263°
2026-04-28 00:52 -24.75029 -54.06368 40047 ft 429 kts 263°
2026-04-28 00:52 -24.76385 -54.12720 40048 ft 429 kts 263°
2026-04-28 00:53 -24.77746 -54.19123 39995 ft 433 kts 262°
2026-04-28 00:53 -24.79113 -54.25557 40071 ft 428 kts 262°
2026-04-28 00:54 -24.80463 -54.31902 40063 ft 424 kts 262°
2026-04-28 00:54 -24.81798 -54.38214 40066 ft 423 kts 262°
2026-04-28 00:55 -24.83126 -54.44487 40068 ft 423 kts 262°
2026-04-28 00:55 -24.84461 -54.50795 40070 ft 423 kts 262°
2026-04-28 00:56 -24.85793 -54.57102 40071 ft 423 kts 262°
2026-04-28 00:56 -24.87122 -54.63406 40070 ft 423 kts 262°
2026-04-28 00:57 -24.88449 -54.69708 40071 ft 422 kts 262°
2026-04-28 00:57 -24.89775 -54.76024 40084 ft 422 kts 262°
2026-04-28 00:58 -24.91088 -54.82290 40077 ft 421 kts 262°
2026-04-28 00:58 -24.92402 -54.88578 40082 ft 421 kts 262°
2026-04-28 00:59 -24.93676 -54.94878 40079 ft 419 kts 266°
2026-04-28 00:59 -24.94440 -55.01218 40099 ft 417 kts 267°
2026-04-28 01:00 -24.95066 -55.06479 40089 ft 416 kts 267°
2026-04-28 01:00 -24.95850 -55.12782 40090 ft 415 kts 267°
2026-04-28 01:01 -24.96644 -55.19077 40089 ft 414 kts 267°
2026-04-28 01:01 -24.97440 -55.25380 40075 ft 415 kts 267°
2026-04-28 01:02 -24.98226 -55.31611 40080 ft 414 kts 267°
2026-04-28 01:02 -24.99019 -55.37915 40092 ft 416 kts 267°
2026-04-28 01:03 -24.99815 -55.44262 40092 ft 417 kts 267°
2026-04-28 01:03 -25.00609 -55.50617 40094 ft 417 kts 267°
2026-04-28 01:04 -25.01398 -55.56951 40094 ft 417 kts 267°
2026-04-28 01:04 -25.02182 -55.63271 40095 ft 416 kts 267°
2026-04-28 01:05 -25.02958 -55.69537 39760 ft 412 kts 267°
2026-04-28 01:05 -25.03353 -55.72715 39057 ft 413 kts 267°
2026-04-28 01:05 -25.03733 -55.75814 38308 ft 413 kts 267°
2026-04-28 01:05 -25.04118 -55.78952 37606 ft 412 kts 266°
2026-04-28 01:06 -25.04501 -55.82081 36896 ft 411 kts 266°
2026-04-28 01:06 -25.04883 -55.85205 36187 ft 410 kts 266°
2026-04-28 01:06 -25.05263 -55.88320 35454 ft 410 kts 266°
2026-04-28 01:06 -25.05644 -55.91446 34669 ft 412 kts 266°
2026-04-28 01:07 -25.06027 -55.94593 33777 ft 416 kts 266°
2026-04-28 01:07 -25.06411 -55.97764 32837 ft 418 kts 266°
2026-04-28 01:07 -25.06798 -56.00950 31967 ft 420 kts 266°
2026-04-28 01:07 -25.07184 -56.04132 31350 ft 416 kts 266°
2026-04-28 01:08 -25.07567 -56.07282 30718 ft 412 kts 266°
2026-04-28 01:08 -25.07939 -56.10367 30063 ft 410 kts 266°
2026-04-28 01:08 -25.08318 -56.13511 29355 ft 406 kts 266°
2026-04-28 01:08 -25.08684 -56.16552 28708 ft 402 kts 266°
2026-04-28 01:09 -25.09049 -56.19594 28093 ft 397 kts 266°
2026-04-28 01:09 -25.09409 -56.22596 27465 ft 393 kts 266°
2026-04-28 01:09 -25.09765 -56.25573 26840 ft 389 kts 266°
2026-04-28 01:09 -25.10117 -56.28520 26217 ft 385 kts 265°
2026-04-28 01:10 -25.10466 -56.31454 25630 ft 392 kts 265°
2026-04-28 01:10 -25.10827 -56.34523 25593 ft 412 kts 265°
2026-04-28 01:10 -25.11201 -56.37682 26126 ft 415 kts 265°
2026-04-28 01:10 -25.11576 -56.40840 26837 ft 416 kts 265°
2026-04-28 01:11 -25.11954 -56.44028 27451 ft 419 kts 266°
2026-04-28 01:11 -25.12332 -56.47231 28054 ft 423 kts 266°
2026-04-28 01:11 -25.12713 -56.50459 28647 ft 426 kts 266°
2026-04-28 01:11 -25.13096 -56.53715 29211 ft 430 kts 266°
2026-04-28 01:12 -25.13482 -56.57001 29751 ft 433 kts 266°
2026-04-28 01:12 -25.13829 -56.60309 30256 ft 434 kts 270°
2026-04-28 01:12 -25.13785 -56.63642 30690 ft 434 kts 276°
2026-04-28 01:12 -25.13569 -56.66924 31099 ft 436 kts 277°
2026-04-28 01:13 -25.13326 -56.70276 31490 ft 439 kts 277°
2026-04-28 01:13 -25.12843 -56.77025 32181 ft 443 kts 277°
2026-04-28 01:13 -25.12609 -56.80368 32233 ft 426 kts 277°
2026-04-28 01:14 -25.12391 -56.83530 31594 ft 403 kts 277°
2026-04-28 01:14 -25.12178 -56.86579 30324 ft 396 kts 277°
2026-04-28 01:14 -25.11961 -56.89629 28385 ft 402 kts 276°
2026-04-28 01:14 -25.11741 -56.92716 26758 ft 403 kts 276°
2026-04-28 01:15 -25.11528 -56.95737 25992 ft 384 kts 276°
2026-04-28 01:15 -25.11327 -56.98594 25493 ft 360 kts 276°
2026-04-28 01:15 -25.11138 -57.01263 25056 ft 338 kts 276°
2026-04-28 01:15 -25.10961 -57.03762 24565 ft 319 kts 276°
2026-04-28 01:16 -25.10790 -57.06144 23868 ft 311 kts 275°
2026-04-28 01:16 -25.10620 -57.08502 22948 ft 306 kts 275°
2026-04-28 01:16 -25.10452 -57.10829 21944 ft 303 kts 275°
2026-04-28 01:16 -25.10285 -57.13145 20969 ft 302 kts 274°
2026-04-28 01:17 -25.10119 -57.15445 20033 ft 300 kts 274°
2026-04-28 01:17 -25.09954 -57.17739 19114 ft 299 kts 274°
2026-04-28 01:17 -25.09788 -57.20028 18179 ft 299 kts 274°
2026-04-28 01:17 -25.09623 -57.22308 17143 ft 299 kts 274°
2026-04-28 01:18 -25.09457 -57.24599 16118 ft 300 kts 274°
2026-04-28 01:18 -25.09291 -57.26893 15130 ft 300 kts 274°
2026-04-28 01:18 -25.09124 -57.29187 14188 ft 301 kts 274°
2026-04-28 01:18 -25.08955 -57.31504 13164 ft 303 kts 274°
2026-04-28 01:19 -25.08786 -57.33801 12268 ft 300 kts 275°
2026-04-28 01:19 -25.08494 -57.36060 11407 ft 295 kts 281°
2026-04-28 01:19 -25.08077 -57.38230 10332 ft 285 kts 282°
2026-04-28 01:19 -25.07651 -57.40325 9402 ft 269 kts 283°
2026-04-28 01:20 -25.07260 -57.42242 8911 ft 244 kts 283°
2026-04-28 01:20 -25.06936 -57.43965 8449 ft 224 kts 279°
2026-04-28 01:20 -25.06975 -57.45681 7791 ft 220 kts 256°
2026-04-28 01:20 -25.07640 -57.47163 7078 ft 219 kts 228°
2026-04-28 01:21 -25.08830 -57.48169 6439 ft 213 kts 201°
2026-04-28 01:21 -25.10072 -57.49067 6012 ft 214 kts 219°
2026-04-28 01:21 -25.10748 -57.50512 5877 ft 218 kts 262°
2026-04-28 01:21 -25.10574 -57.52170 5490 ft 226 kts 291°
2026-04-28 01:22 -25.09675 -57.53694 4694 ft 248 kts 316°
2026-04-28 01:22 -25.08249 -57.54828 3966 ft 261 kts 334°
2026-04-28 01:22 -25.06508 -57.55387 3534 ft 259 kts 357°
2026-04-28 01:22 -25.04913 -57.55064 3997 ft 212 kts 22°
2026-04-28 01:23 -25.03746 -57.54295 3944 ft 193 kts 54°
2026-04-28 01:23 -25.03396 -57.52953 3687 ft 183 kts 101°
2026-04-28 01:23 -25.03783 -57.51641 3528 ft 178 kts 113°
2026-04-28 01:23 -25.04355 -57.50462 3469 ft 167 kts 122°
2026-04-28 01:24 -25.04983 -57.49428 3308 ft 160 kts 126°
2026-04-28 01:24 -25.05718 -57.48527 3074 ft 157 kts 141°
2026-04-28 01:24 -25.06679 -57.48009 2968 ft 157 kts 165°
2026-04-28 01:24 -25.07768 -57.47965 2905 ft 158 kts 187°
2026-04-28 01:25 -25.08844 -57.48230 2851 ft 159 kts 191°
2026-04-28 01:25 -25.09903 -57.48493 2772 ft 159 kts 190°
2026-04-28 01:25 -25.11002 -57.48755 2580 ft 158 kts 189°
2026-04-28 01:25 -25.12060 -57.49009 2378 ft 153 kts 189°
2026-04-28 01:26 -25.13086 -57.49260 2162 ft 148 kts 189°
2026-04-28 01:26 -25.14084 -57.49503 1971 ft 146 kts 188°
2026-04-28 01:26 -25.15055 -57.49740 1782 ft 144 kts 187°
2026-04-28 01:26 -25.16023 -57.49975 1580 ft 140 kts 188°
2026-04-28 01:27 -25.16949 -57.50201 1387 ft 132 kts 188°
2026-04-28 01:27 -25.17782 -57.50404 1228 ft 121 kts 189°
2026-04-28 01:27 -25.18598 -57.50602 1070 ft 118 kts 189°
2026-04-28 01:27 -25.19398 -57.50797 916 ft 117 kts 190°
2026-04-28 01:28 -25.20200 -57.50987 746 ft 118 kts 191°
2026-04-28 01:28 -25.20995 -57.51195 594 ft 117 kts 191°
2026-04-28 01:28 -25.21793 -57.51377 454 ft 116 kts 191°
2026-04-28 01:28 -25.22586 -57.51574 303 ft 114 kts 192°
2026-04-28 01:29 -25.23332 -57.51755 277 ft 100 kts 192°
2026-04-28 01:29 -25.23783 -57.51865 282 ft 25 kts 192°
2026-04-28 01:29 -25.23927 -57.51900 287 ft 22 kts 192°
2026-04-28 01:29 -25.24075 -57.51935 294 ft 23 kts 192°
2026-04-28 01:30 -25.24160 -57.51956 296 ft 0 kts 193°
2026-04-28 01:30 -25.24165 -57.51957 295 ft 7 kts 193°
2026-04-28 01:30 -25.24241 -57.51948 296 ft 12 kts 141°
2026-04-28 01:30 -25.24273 -57.51855 292 ft 14 kts 103°
2026-04-28 01:31 -25.24297 -57.51737 293 ft 5 kts 103°
2026-04-28 01:31 -25.24298 -57.51730 290 ft 2 kts 102°
2026-04-28 01:31 -25.24306 -57.51692 293 ft 8 kts 103°
2026-04-28 01:31 -25.24322 -57.51616 294 ft 13 kts 103°
2026-04-28 01:32 -25.24345 -57.51519 291 ft 10 kts 114°
2026-04-28 01:32 -25.24340 -57.51447 295 ft 10 kts 39°
2026-04-28 01:32 -25.24307 -57.51432 293 ft 0 kts 18°
2026-04-28 01:32 -25.24297 -57.51429 292 ft 3 kts 20°
2026-04-28 01:33 -25.24293 -57.51429 292 ft 0 kts 13°